User: anonymous   Login
Location: Unspecified
(0.0000°N, 0.0000°E)
Time: 05:43:59
(UTC+00:00)
Language:

TBA - TO BE ASSIGNED - Orbit

View from above orbital plane
View from above orbital plane
View from above satellite
View from above satellite

Ground track
Ground track

The orbit is defined by the following mean orbital elements,

1 68623U          26145.58335647 +.00000000 +00000-0 -71833-2 0 00002
2 68623  97.2852 345.1541 0001884  68.6580 216.3429 15.49407740    05
Epoch (UTC): 25 May 2026 14:00:01
Eccentricity: 0.0001884
inclination: 97.2852°
perigee height: 417 km
apogee height: 420 km
right ascension of ascending node: 345.1541°
argument of perigee: 68.6580°
revolutions per day: 15.49407740
mean anomaly at epoch: 216.3429°

The dashed part of the orbit path shows where the satellite is in the earth's shadow,  

DLR